1487066400.63,20530,12.0,74490.3,4.03,-31.67,-32.19,0,*74
1487066401.86,20531,11.94,74490.8,4.01,-32.01,-32.39,0,*76
1487066403.14,20532,12.0,74490.5,4.01,-33.09,-33.61,0,*70
1487066404.37,20533,12.0,74490.8,4.01,-32.23,-32.51,0,*7A
1487066405.62,20534,12.0,74494.5,3.97,-33.73,-34.41,0,*76
1487066406.85,20535,12.0,74496.8,3.97,-33.55,-34.13,0,*74
1487066408.12,20536,12.0,74498.8,3.95,-32.63,-32.79,0,*7B
1487066409.35,20537,12.0,74494.5,3.93,-31.23,-31.45,0,*77
1487066410.6,20538,12.0,74492.3,3.95,-30.89,-31.17,0,*78
1487066411.85,20539,11.94,74486.3,3.95,-30.27,-30.51,0,*7E
1487066413.1,20540,12.0,74494.0,3.95,-30.33,-30.73,0,*75
1487066414.33,20541,11.94,74486.8,3.95,-30.83,-31.05,0,*7F
1487066415.56,20542,12.0,74488.8,3.95,-30.27,-30.67,0,*77
1487066416.84,20543,12.0,74490.0,3.97,-32.79,-33.43,0,*78
1487066418.13,20544,12.0,74488.3,3.97,-32.63,-33.31,0,*71
1487066419.35,20545,12.0,74486.8,3.97,-33.15,-33.55,0,*72
1487066420.55,20546,12.0,74494.8,3.93,-32.69,-33.21,0,*7C
1487066421.8,20547,12.0,74488.0,3.95,-31.61,-31.79,0,*7F
1487066423.05,20548,12.0,74482.8,3.95,-31.91,-32.39,0,*78
1487066424.28,20549,12.0,74484.5,3.93,-33.77,-34.31,0,*7B
1487066425.5,20550,12.0,74486.0,3.87,-34.41,-34.89,0,*77
1487066426.76,20551,11.94,74488.8,3.87,-34.07,-34.53,0,*73
1487066427.98,20552,11.94,74486.5,3.83,-34.07,-34.41,0,*77
1487066429.22,20553,11.94,74484.8,3.83,-32.23,-32.45,0,*74
1487066430.46,20554,12.0,74486.5,3.81,-32.63,-32.97,0,*7A
1487066431.69,20555,12.0,74482.5,3.81,-33.37,-33.77,0,*74
1487066432.92,20556,12.0,74482.0,3.79,-33.67,-34.13,0,*70
1487066434.17,20557,11.94,74482.5,3.75,-32.79,-32.91,0,*7F
1487066435.39,20558,11.94,74484.3,3.77,-31.61,-32.01,0,*71
1487066436.62,20559,12.0,74490.0,3.77,-32.39,-32.79,0,*71
1487066437.87,20560,12.0,74494.0,3.77,-30.73,-31.11,0,*7A
1487066439.07,20561,11.94,74492.5,3.77,-31.01,-31.17,0,*79
1487066440.29,20562,12.0,74492.8,3.79,-31.01,-31.17,0,*74
1487066441.54,20563,11.94,74490.0,3.77,-30.55,-30.73,0,*78
1487066442.76,20564,11.94,74490.3,3.79,-31.01,-31.17,0,*72
1487066444.02,20565,11.94,74488.8,3.81,-31.11,-31.39,0,*79
1487066445.27,20566,12.0,74494.8,3.81,-30.95,-31.39,0,*77
1487066446.55,20567,11.94,74492.0,3.79,-32.85,-33.27,0,*7F
1487066447.8,20568,11.94,74494.8,3.79,-33.03,-33.09,0,*73
1487066449.07,20569,11.94,74496.0,3.79,-31.51,-31.85,0,*71
1487066450.33,20570,11.94,74498.3,3.81,-31.11,-31.39,0,*7D
1487066451.55,20571,11.94,74498.5,3.77,-31.33,-31.51,0,*7B
1487066452.8,20572,11.94,74494.8,3.79,-30.73,-31.01,0,*76
1487066454.05,20573,12.0,74498.3,3.79,-31.17,-31.51,0,*71
1487066455.31,20574,12.0,74500.3,3.81,-30.95,-31.23,0,*7F
1487066456.55,20575,12.0,74502.5,3.79,-31.51,-32.01,0,*73
1487066457.8,20576,12.0,74500.8,3.81,-30.95,-31.23,0,*7D
1487066459.03,20577,12.0,74502.3,3.79,-31.33,-31.67,0,*76
1487066460.29,20578,11.94,74502.0,3.79,-30.55,-30.95,0,*74
1487066461.57,20579,11.94,74502.8,3.79,-30.73,-30.73,0,*79
1487066462.82,20580,12.0,74506.3,3.79,-30.77,-31.01,0,*7F
1487066464.04,20581,12.0,74506.0,3.81,-31.05,-31.39,0,*76
1487066465.26,20582,11.94,74506.5,3.81,-30.05,-30.23,0,*7E
1487066466.51,20583,11.94,74510.0,3.81,-29.73,-30.01,0,*76
1487066467.71,20584,11.94,74510.3,3.85,-29.79,-29.95,0,*7A
1487066468.91,20585,11.94,74510.0,3.85,-29.61,-29.95,0,*72
1487066470.17,20586,11.94,74504.0,3.87,-29.61,-29.89,0,*7E
1487066471.42,20587,11.94,74502.8,3.89,-30.77,-31.11,0,*76
1487066472.64,20588,11.94,74506.5,3.87,-31.17,-31.33,0,*70
1487066473.87,20589,11.94,74506.5,3.89,-31.45,-31.85,0,*75
1487066475.14,20590,11.94,74502.8,3.87,-31.51,-31.85,0,*76
1487066476.38,20591,12.0,74504.3,3.85,-31.91,-32.29,0,*7C
1487066477.61,20592,11.94,74500.0,3.85,-32.79,-33.37,0,*74
1487066478.86,20593,11.94,74498.8,3.83,-32.79,-33.15,0,*73
1487066480.14,20594,11.94,74502.3,3.83,-32.45,-32.79,0,*70
1487066481.36,20595,11.94,74506.0,3.81,-32.13,-32.45,0,*7F
1487066482.58,20596,11.94,74500.0,3.81,-31.45,-31.73,0,*7A
1487066483.83,20597,11.94,74496.0,3.81,-31.23,-31.57,0,*7D
1487066485.06,20598,11.94,74496.5,3.81,-32.79,-33.37,0,*7A
1487066486.31,20599,11.94,74494.5,3.79,-33.43,-33.83,0,*7B
1487066487.59,20600,11.94,74492.0,3.79,-32.85,-33.27,0,*7D
1487066488.84,20601,11.94,74488.5,3.79,-32.19,-32.69,0,*72
1487066490.06,20602,11.94,74488.3,3.77,-33.43,-33.95,0,*73
1487066491.28,20603,11.94,74490.0,3.75,-33.55,-34.07,0,*7B
1487066492.55,20604,11.94,74486.8,3.75,-33.09,-33.49,0,*78
1487066493.84,20605,11.94,74484.5,3.71,-34.31,-34.65,0,*78
1487066495.09,20606,11.94,74490.3,3.67,-34.19,-34.71,0,*73
1487066496.34,20607,11.94,74488.8,3.65,-33.27,-33.77,0,*7B
1487066497.57,20608,11.94,74494.5,3.65,-33.03,-33.49,0,*7F
1487066498.77,20609,11.94,74494.0,3.65,-32.91,-33.21,0,*7A
1487066500.0,20610,11.94,74492.0,3.63,-32.91,-33.27,0,*72
1487066501.23,20611,11.94,74488.8,3.63,-31.85,-32.23,0,*70
1487066502.47,20612,11.94,74488.3,3.61,-32.23,-32.63,0,*7A
1487066503.67,20613,11.94,74490.5,3.63,-32.13,-32.57,0,*7D
1487066504.89,20614,11.94,74486.8,3.63,-32.23,-32.63,0,*7E
1487066506.09,20615,11.94,74486.8,3.63,-32.57,-32.91,0,*71
1487066507.36,20616,11.94,74484.0,3.61,-31.23,-31.57,0,*79
1487066508.62,20617,11.94,74484.5,3.61,-30.17,-30.33,0,*7D
1487066509.87,20618,11.94,74480.3,3.61,-29.89,-30.11,0,*7D
1487066511.09,20619,11.94,74486.5,3.63,-31.33,-31.57,0,*75
1487066512.34,20620,11.94,74488.5,3.61,-32.57,-32.97,0,*73
1487066513.56,20621,11.94,74484.5,3.63,-33.27,-33.83,0,*72
1487066514.81,20622,11.94,74486.3,3.61,-34.65,-35.17,0,*79
1487066516.01,20623,11.94,74496.0,3.59,-34.25,-34.71,0,*76
1487066517.26,20624,11.94,74494.3,3.57,-33.67,-34.31,0,*7A
1487066518.47,20625,11.94,74496.8,3.55,-33.21,-33.37,0,*7A
1487066519.72,20626,11.94,74498.3,3.53,-31.33,-31.57,0,*7A
1487066520.96,20627,11.94,74496.5,3.55,-32.51,-32.75,0,*79
1487066522.22,20628,11.94,74496.0,3.53,-32.39,-32.75,0,*7E
1487066523.42,20629,11.94,74502.3,3.55,-33.95,-34.47,0,*79
1487066524.68,20630,11.94,74498.0,3.49,-33.73,-34.13,0,*75
1487066525.94,20631,11.94,74496.5,3.49,-32.79,-33.15,0,*7E
1487066527.17,20632,11.94,74498.5,3.49,-32.35,-32.69,0,*7F
1487066528.39,20633,11.94,74498.8,3.49,-33.55,-33.95,0,*7B
1487066529.63,20634,11.94,74494.0,3.49,-33.03,-33.37,0,*77
1487066530.86,20635,11.94,74486.0,3.45,-32.57,-32.91,0,*77
1487066532.09,20636,11.94,74482.3,3.45,-32.57,-32.91,0,*74
1487066533.34,20637,11.94,74480.8,3.45,-32.57,-33.09,0,*75
1487066534.6,20638,11.94,74480.3,3.45,-35.23,-35.77,0,*71
1487066535.82,20639,11.94,74480.0,3.39,-33.83,-34.19,0,*7E
1487066537.08,20640,11.94,74472.0,3.41,-31.73,-32.23,0,*7D
1487066538.34,20641,11.94,74474.3,3.41,-31.85,-32.23,0,*75
1487066539.57,20642,11.94,74476.8,3.39,-32.75,-33.15,0,*71
1487066540.79,20643,11.94,74480.8,3.39,-32.35,-32.75,0,*73
1487066542.02,20644,11.94,74482.5,3.39,-32.39,-32.79,0,*74
1487066543.3,20645,11.94,74488.0,3.37,-32.97,-33.31,0,*72
1487066544.53,20646,11.94,74488.3,3.37,-32.13,-32.39,0,*74
1487066545.74,20647,11.94,74486.8,3.35,-32.69,-33.21,0,*72
1487066547.02,20648,11.94,74490.0,3.37,-32.45,-32.85,0,*7E
1487066548.3,20649,11.94,74486.5,3.37,-32.07,-32.29,0,*7F
1487066549.52,20650,11.94,74488.0,3.37,-32.23,-32.69,0,*75
1487066550.8,20651,11.94,74496.5,3.37,-31.39,-31.61,0,*77
1487066552.05,20652,11.94,74490.3,3.37,-30.11,-30.39,0,*73
1487066553.28,20653,11.94,74488.0,3.41,-29.95,-30.11,0,*7D
1487066554.54,20654,11.94,74484.8,3.41,-29.89,-30.11,0,*77
1487066555.75,20655,11.94,74492.0,3.43,-29.57,-29.83,0,*74
1487066556.98,20656,11.94,74490.8,3.45,-29.83,-30.23,0,*7A
1487066558.21,20657,11.94,74488.3,3.49,-29.61,-29.95,0,*7E
1487066559.45,20658,11.94,74492.5,3.49,-29.95,-30.11,0,*7E
1487066560.65,20659,11.94,74492.5,3.51,-29.23,-29.57,0,*71
1487066561.88,20660,11.94,74494.8,3.51,-29.13,-29.45,0,*7B
1487066563.13,20661,11.94,74490.3,3.55,-29.17,-29.39,0,*71
1487066564.36,20662,11.94,74492.8,3.55,-29.67,-30.05,0,*72
1487066565.63,20663,11.94,74492.3,3.57,-29.35,-29.67,0,*7A
1487066566.88,20664,11.94,74492.0,3.59,-29.17,-29.51,0,*76
1487066568.14,20665,11.94,74492.8,3.59,-29.35,-29.51,0,*77
1487066569.37,20666,11.94,74498.3,3.63,-29.13,-29.45,0,*7C
1487066570.59,20667,11.94,74492.8,3.63,-30.27,-30.51,0,*7F
1487066571.79,20668,11.94,74500.0,3.63,-31.01,-31.33,0,*70
1487066573.04,20669,11.94,74494.5,3.63,-30.77,-31.23,0,*70
1487066574.3,20670,11.94,74492.5,3.65,-30.05,-30.39,0,*71
1487066575.54,20671,11.94,74496.3,3.63,-30.51,-30.95,0,*71
1487066576.79,20672,11.94,74498.3,3.61,-30.33,-30.61,0,*7F
1487066578.0,20673,11.94,74496.8,3.63,-30.83,-31.05,0,*74
1487066579.22,20674,11.94,74490.3,3.63,-30.77,-31.17,0,*7B
1487066580.45,20675,11.94,74498.0,3.63,-30.33,-30.61,0,*7A
1487066581.71,20676,11.94,74496.8,3.65,-30.55,-30.73,0,*7C
1487066582.95,20677,11.94,74496.8,3.65,-29.39,-29.57,0,*71
1487066584.18,20678,11.94,74498.3,3.67,-29.67,-29.95,0,*79
1487066585.45,20679,11.94,74492.3,3.67,-29.73,-30.05,0,*7C
1487066586.72,20680,11.94,74498.8,3.67,-29.39,-29.67,0,*78
1487066587.96,20681,11.94,74498.3,3.71,-28.69,-29.13,0,*79
1487066589.17,20682,11.94,74498.8,3.73,-29.57,-29.83,0,*7D
1487066590.42,20683,11.94,74496.3,3.75,-30.01,-30.33,0,*72
1487066591.67,20684,11.94,74498.3,3.75,-30.27,-30.51,0,*75
1487066592.9,20685,11.94,74494.5,3.77,-29.67,-30.05,0,*7B
1487066594.15,20686,11.94,74498.3,3.75,-29.57,-30.01,0,*7D
1487066595.4,20687,11.94,74496.0,3.75,-30.33,-30.61,0,*70
1487066596.6,20688,11.94,74496.3,3.77,-29.79,-30.11,0,*7C
1487066597.85,20689,11.94,74498.5,3.75,-30.01,-30.45,0,*79
1487066599.09,20690,11.94,74498.0,3.79,-30.05,-30.27,0,*7D
1487066600.29,20691,11.94,74494.0,3.77,-29.79,-30.23,0,*75
1487066601.52,20692,11.94,74494.0,3.77,-30.27,-30.61,0,*73
1487066602.74,20693,11.94,74496.0,3.77,-30.45,-30.55,0,*71
1487066603.96,20694,11.94,74498.8,3.77,-30.61,-31.01,0,*70
1487066605.21,20695,11.94,74502.3,3.79,-31.33,-31.61,0,*7F
1487066606.44,20696,11.94,74496.3,3.77,-30.83,-31.11,0,*7F
1487066607.67,20697,11.94,74498.0,3.77,-29.89,-30.23,0,*7C
1487066608.92,20698,11.94,74496.3,3.81,-30.17,-30.51,0,*70
1487066610.17,20699,11.94,74500.5,3.79,-30.95,-31.29,0,*72
1487066611.44,20700,11.94,74502.3,3.79,-30.55,-30.95,0,*79
1487066612.69,20701,11.94,74502.0,3.79,-30.27,-30.55,0,*71
1487066613.92,20702,11.94,74498.8,3.79,-31.17,-31.29,0,*7A
1487066615.14,20703,11.94,74496.0,3.77,-30.95,-31.29,0,*7E
1487066616.42,20704,11.94,74498.8,3.79,-31.61,-31.85,0,*7B
1487066617.65,20705,11.94,74498.8,3.77,-32.07,-32.35,0,*7F
1487066618.87,20706,11.94,74500.8,3.77,-31.61,-32.01,0,*78
1487066620.14,20707,11.94,74500.8,3.75,-32.97,-33.49,0,*7C
1487066621.36,20708,11.94,74496.8,3.73,-33.15,-33.73,0,*77
1487066622.6,20709,11.94,74500.8,3.71,-32.69,-33.15,0,*7E
1487066623.84,20710,11.94,74500.3,3.71,-33.15,-33.61,0,*7F
1487066625.07,20711,11.94,74500.0,3.65,-32.85,-33.67,0,*75
1487066626.3,20712,11.94,74498.0,3.65,-33.43,-34.13,0,*79
1487066627.51,20713,11.94,74498.8,3.65,-32.57,-32.91,0,*70
1487066628.76,20714,11.94,74498.5,3.61,-33.37,-33.89,0,*7C
1487066629.95,20715,11.94,74498.8,3.59,-33.15,-33.55,0,*77
1487066631.2,20716,11.94,74502.3,3.59,-32.97,-33.31,0,*7D
1487066632.43,20717,11.94,74500.8,3.59,-32.85,-33.21,0,*7E
1487066633.71,20718,11.94,74502.0,3.57,-31.51,-31.85,0,*79
1487066634.93,20719,11.94,74500.5,3.55,-33.03,-33.61,0,*77
1487066636.16,20720,11.94,74502.0,3.55,-32.91,-33.27,0,*75
1487066637.36,20721,11.94,74498.0,3.55,-32.13,-32.39,0,*70
1487066638.62,20722,11.94,74496.8,3.53,-32.57,-33.09,0,*77
1487066639.9,20723,11.94,74492.8,3.49,-32.29,-32.79,0,*72
1487066641.11,20724,11.94,74492.3,3.51,-32.01,-32.39,0,*72
1487066642.37,20725,11.94,74494.8,3.49,-32.29,-32.69,0,*75
1487066643.65,20726,11.94,74494.8,3.49,-31.23,-31.39,0,*79
1487066644.86,20727,11.94,74488.5,3.51,-31.33,-31.33,0,*7A
1487066646.11,20728,11.94,74490.3,3.51,-31.57,-31.85,0,*7A
1487066647.32,20729,11.94,74494.3,3.51,-30.67,-31.01,0,*75
1487066648.57,20730,11.94,74494.5,3.51,-32.63,-33.31,0,*7A
1487066649.8,20731,11.94,74494.0,3.51,-32.91,-33.27,0,*71
1487066651.06,20732,11.94,74498.8,3.49,-32.97,-33.37,0,*7C
1487066652.31,20733,11.94,74496.5,3.49,-33.03,-33.49,0,*78
1487066653.55,20734,11.94,74494.8,3.49,-32.69,-33.15,0,*7B
1487066654.77,20735,11.94,74498.0,3.43,-32.29,-32.69,0,*7E
1487066656.01,20736,11.94,74496.8,3.43,-32.57,-32.85,0,*76
1487066657.26,20737,11.94,74496.3,3.45,-31.29,-31.61,0,*72
1487066658.5,20738,11.94,74498.3,3.45,-32.01,-32.51,0,*74
1487066659.76,20739,11.94,74494.0,3.43,-31.95,-32.19,0,*71
1487066661.04,20740,11.94,74494.8,3.45,-31.11,-31.51,0,*7A
1487066662.27,20741,11.94,74494.0,3.43,-31.67,-31.95,0,*74
1487066663.51,20742,11.94,74498.5,3.45,-31.51,-31.79,0,*76
1487066664.77,20743,11.94,74496.8,3.45,-32.85,-33.37,0,*75
1487066666.0,20744,11.94,74496.5,3.43,-33.37,-33.61,0,*7F
1487066667.22,20745,11.94,74500.8,3.39,-32.63,-33.15,0,*70
1487066668.47,20746,11.94,74494.0,3.39,-32.63,-33.09,0,*7E
1487066669.72,20747,11.94,74492.0,3.39,-32.75,-32.97,0,*7E
1487066670.95,20748,11.94,74492.3,3.39,-32.07,-32.35,0,*7C
1487066672.2,20749,11.94,74490.5,3.39,-31.39,-31.85,0,*7B
1487066673.45,20750,11.94,74496.8,3.39,-31.57,-31.85,0,*7B
1487066674.7,20751,11.94,74492.3,3.39,-32.63,-33.09,0,*78
1487066675.94,20752,11.94,74494.0,3.41,-32.01,-32.35,0,*7E
1487066677.19,20753,11.94,74492.0,3.37,-32.23,-32.63,0,*7D
1487066678.47,20754,11.94,74492.5,3.37,-31.23,-31.61,0,*78
1487066679.75,20755,11.94,74492.8,3.37,-31.61,-31.91,0,*70
1487066681.01,20756,11.94,74496.8,3.37,-32.39,-32.85,0,*7B
1487066682.26,20757,11.94,74494.5,3.37,-32.29,-32.69,0,*79
1487066683.49,20758,11.94,74492.8,3.37,-32.39,-32.69,0,*77
1487066684.7,20759,11.94,74496.0,3.35,-33.37,-34.07,0,*75
1487066685.95,20760,11.94,74498.0,3.35,-33.31,-33.89,0,*78
1487066687.19,20761,11.94,74496.3,3.33,-32.51,-32.91,0,*70
1487066688.45,20762,11.94,74500.0,3.33,-31.95,-32.35,0,*76
1487066689.69,20763,11.94,74496.3,3.31,-32.19,-32.35,0,*72
1487066690.97,20764,11.94,74496.0,3.31,-31.73,-31.95,0,*73
1487066692.22,20765,11.94,74498.8,3.31,-31.85,-32.23,0,*75
1487066693.46,20766,11.94,74494.5,3.33,-31.45,-31.79,0,*74
1487066694.68,20767,11.94,74490.8,3.33,-31.67,-32.13,0,*7A
1487066695.97,20768,11.94,74494.8,3.33,-31.91,-32.07,0,*79
1487066697.22,20769,11.94,74494.0,3.33,-32.35,-32.85,0,*7F
1487066698.46,20770,11.94,74490.5,3.31,-33.15,-33.61,0,*7D
1487066699.7,20771,11.94,74484.8,3.31,-33.15,-33.49,0,*76
1487066700.91,20772,11.94,74488.0,3.29,-32.01,-32.39,0,*7E
1487066702.14,20773,11.94,74490.0,3.29,-32.63,-33.15,0,*74
1487066703.37,20774,11.94,74490.5,3.29,-33.31,-33.67,0,*70
1487066704.62,20775,11.94,74490.0,3.27,-33.67,-33.89,0,*7C
1487066705.87,20776,11.94,74488.8,3.27,-32.57,-32.85,0,*70
1487066707.1,20777,11.94,74492.0,3.27,-32.69,-33.21,0,*73
1487066708.3,20778,11.94,74492.0,3.21,-33.03,-33.37,0,*70
1487066709.55,20779,11.94,74494.0,3.21,-33.09,-33.61,0,*78
1487066710.82,20780,11.94,74494.3,3.19,-33.77,-34.35,0,*7A
1487066712.06,20781,11.94,74488.0,3.17,-33.77,-34.19,0,*7B
1487066713.31,20782,11.94,74490.0,3.17,-32.97,-33.27,0,*7D
1487066714.51,20783,11.94,74490.5,3.17,-32.57,-33.15,0,*71
1487066715.76,20784,11.94,74492.0,3.19,-31.95,-32.35,0,*76
1487066716.99,20785,11.94,74494.0,3.17,-31.11,-31.33,0,*70
1487066718.19,20786,11.94,74494.0,3.17,-32.51,-32.91,0,*7F
1487066719.47,20787,11.94,74490.0,3.19,-32.19,-32.63,0,*71
1487066720.69,20788,11.94,74488.5,3.17,-31.91,-32.39,0,*7C
1487066721.91,20789,11.94,74494.3,3.15,-31.79,-32.13,0,*71
1487066723.11,20790,11.94,74494.3,3.17,-31.45,-31.67,0,*74
1487066724.34,20791,11.94,74492.0,3.17,-31.29,-31.85,0,*73
1487066725.53,20792,11.94,74492.0,3.17,-33.55,-33.95,0,*7A
1487066726.76,20793,11.94,74492.0,3.17,-32.57,-32.75,0,*77
1487066727.99,20794,11.94,74492.8,3.17,-30.95,-31.17,0,*7B
1487066729.25,20795,11.94,74494.8,3.19,-31.79,-32.19,0,*7A
1487066730.47,20796,11.94,74488.5,3.17,-31.45,-31.85,0,*7E
1487066731.7,20797,11.94,74492.3,3.17,-31.61,-32.01,0,*76
1487066732.93,20798,11.94,74494.5,3.17,-31.67,-32.07,0,*79
1487066734.18,20799,11.94,74496.5,3.17,-32.75,-33.27,0,*7B
1487066735.44,20800,11.94,74494.0,3.17,-33.27,-33.43,0,*70
1487066736.67,20801,11.94,74492.5,3.13,-31.95,-32.23,0,*79
1487066737.91,20802,11.94,74492.5,3.15,-32.39,-32.79,0,*76
1487066739.18,20803,11.94,74496.3,3.15,-32.45,-32.79,0,*7C
1487066740.4,20804,11.94,74498.8,3.13,-32.29,-32.57,0,*7B
1487066741.63,20805,11.94,74500.8,3.13,-31.67,-31.95,0,*7E
1487066742.85,20806,11.94,74504.3,3.13,-32.23,-32.45,0,*70
1487066744.1,20807,11.94,74506.3,3.15,-31.73,-32.23,0,*71
1487066745.32,20808,11.94,74500.8,3.13,-32.57,-32.97,0,*72
1487066746.55,20809,11.94,74498.0,3.13,-32.39,-32.75,0,*77
1487066747.8,20810,11.94,74498.3,3.11,-32.29,-32.69,0,*71
1487066749.0,20811,11.94,74496.3,3.09,-32.51,-32.91,0,*71
1487066750.19,20812,11.94,74494.8,3.09,-33.21,-33.55,0,*7D
1487066751.44,20813,11.94,74498.8,3.09,-32.79,-32.85,0,*7C
1487066752.66,20814,11.94,74490.8,3.09,-31.05,-31.39,0,*77
1487066753.88,20815,11.94,74492.0,3.09,-31.05,-31.39,0,*76
1487066755.11,20816,11.94,74486.3,3.09,-32.85,-33.37,0,*72
1487066756.35,20817,11.94,74490.0,3.09,-33.77,-34.31,0,*7E
1487066757.62,20818,11.94,74484.0,3.07,-33.77,-34.19,0,*75
1487066758.87,20819,11.94,74484.8,3.07,-34.19,-34.71,0,*75
1487066760.1,20820,11.94,74482.5,3.01,-35.41,-36.01,0,*70
1487066761.36,20821,11.94,74480.5,2.97,-35.23,-35.77,0,*79
1487066762.59,20822,11.94,74478.3,2.93,-35.47,-36.01,0,*7E
1487066763.8,20823,11.94,74472.8,2.91,-35.47,-35.89,0,*7E
1487066765.03,20824,11.94,74466.8,2.89,-34.13,-34.47,0,*73
1487066766.31,20825,11.94,74462.5,2.89,-33.27,-33.73,0,*72
1487066767.56,20826,11.88,74460.8,2.89,-32.51,-32.97,0,*7A
1487066768.81,20827,11.94,74468.3,2.87,-33.27,-33.89,0,*7B
1487066770.1,20828,11.94,74472.3,2.85,-35.23,-35.95,0,*7F
1487066771.33,20829,11.88,74468.3,2.85,-35.47,-35.89,0,*71
1487066772.6,20830,11.94,74474.5,2.81,-34.53,-35.01,0,*79
1487066773.83,20831,11.94,74476.5,2.81,-33.83,-34.25,0,*75
1487066775.08,20832,11.94,74478.0,2.81,-32.97,-33.37,0,*76
1487066776.31,20833,11.94,74480.3,2.81,-33.15,-33.55,0,*78
1487066777.56,20834,11.94,74478.8,2.81,-31.17,-31.85,0,*70
1487066778.85,20835,11.94,74482.3,2.81,-30.51,-30.77,0,*7E
1487066780.08,20836,11.94,74482.3,2.81,-31.01,-31.33,0,*78
1487066781.31,20837,11.94,74486.3,2.83,-31.17,-31.61,0,*7B
1487066782.56,20838,11.94,74484.8,2.83,-30.39,-30.89,0,*7E
1487066783.83,20839,11.94,74480.3,2.89,-30.05,-30.51,0,*7F
1487066785.06,20840,11.94,74482.0,2.87,-30.01,-30.33,0,*7F
1487066786.33,20841,11.94,74484.3,2.89,-29.51,-29.83,0,*7E
1487066787.54,20842,11.94,74484.5,2.91,-30.83,-31.17,0,*77
1487066788.76,20843,11.94,74486.8,2.93,-29.95,-30.27,0,*79
1487066790.01,20844,11.94,74484.3,2.93,-29.73,-30.11,0,*73
1487066791.26,20845,11.94,74484.8,2.97,-29.35,-29.61,0,*7B
1487066792.5,20846,11.94,74486.8,3.01,-29.45,-29.51,0,*72
1487066793.75,20847,11.94,74488.3,3.01,-29.17,-29.51,0,*74
1487066794.99,20848,11.94,74488.5,3.05,-29.61,-29.89,0,*7B
1487066796.22,20849,11.94,74484.3,3.05,-29.51,-29.61,0,*7F
1487066797.45,20850,11.94,74488.0,3.07,-29.79,-30.11,0,*70
1487066798.68,20851,11.94,74494.5,3.09,-29.57,-29.89,0,*7A
1487066799.91,20852,11.94,74498.5,3.09,-29.57,-30.01,0,*71
1487066801.18,20853,11.94,74496.3,3.11,-30.39,-30.89,0,*79
1487066802.46,20854,11.88,74494.8,3.11,-30.51,-30.73,0,*75
1487066803.71,20855,11.94,74494.8,3.11,-31.11,-31.45,0,*75
1487066804.94,20856,11.94,74502.0,3.11,-32.51,-33.03,0,*71
1487066806.16,20857,11.94,74498.5,3.09,-31.29,-31.61,0,*73
1487066807.41,20858,11.94,74498.8,3.11,-31.05,-31.39,0,*76
1487066808.66,20859,11.94,74502.0,3.11,-29.67,-29.89,0,*78
1487066809.91,20860,11.94,74500.5,3.11,-30.95,-31.29,0,*74
1487066811.15,20861,11.94,74496.8,3.13,-30.83,-31.23,0,*7A
1487066812.37,20862,11.94,74498.0,3.13,-30.45,-30.89,0,*72
1487066813.6,20863,11.94,74502.8,3.15,-30.45,-30.83,0,*7F
1487066814.82,20864,11.94,74500.3,3.13,-30.89,-31.17,0,*72
1487066816.07,20865,11.94,74496.0,3.15,-31.33,-31.73,0,*77
1487066817.31,20866,11.94,74496.3,3.15,-30.89,-31.05,0,*75
1487066818.53,20867,11.94,74496.0,3.13,-30.61,-31.05,0,*74
1487066819.75,20868,11.94,74500.8,3.15,-30.11,-30.45,0,*7F
1487066821.0,20869,11.94,74496.8,3.15,-30.73,-31.05,0,*7F
1487066822.24,20870,11.94,74498.8,3.15,-31.39,-31.79,0,*73
1487066823.47,20871,11.94,74492.5,3.15,-30.45,-30.67,0,*76
1487066824.71,20872,11.94,74500.8,3.15,-30.61,-31.01,0,*72
1487066825.91,20873,11.88,74496.3,3.17,-29.61,-29.95,0,*7D
1487066827.19,20874,11.94,74498.0,3.19,-30.73,-31.23,0,*7B
1487066828.44,20875,11.94,74496.8,3.19,-30.05,-30.33,0,*7B
1487066829.69,20876,11.94,74498.0,3.19,-29.35,-29.57,0,*79
1487066830.93,20877,11.88,74496.5,3.21,-30.55,-30.95,0,*7B
1487066832.16,20878,11.94,74498.3,3.21,-31.61,-32.01,0,*7D
1487066833.38,20879,11.94,74496.5,3.21,-32.35,-32.85,0,*72
1487066834.63,20880,11.94,74498.5,3.19,-31.29,-31.61,0,*78
1487066835.88,20881,11.94,74498.0,3.19,-31.67,-32.19,0,*7F
1487066837.13,20882,11.94,74502.8,3.17,-31.51,-31.91,0,*74
1487066838.36,20883,11.94,74498.0,3.17,-30.67,-31.11,0,*79
1487066839.63,20884,11.94,74496.3,3.19,-30.05,-30.39,0,*7F
1487066840.88,20885,11.94,74498.3,3.19,-29.67,-30.05,0,*7D
1487066842.13,20886,11.94,74496.5,3.19,-29.29,-29.57,0,*7B
1487066843.39,20887,11.94,74496.8,3.21,-29.51,-29.89,0,*7D
1487066844.61,20888,11.94,74496.0,3.25,-30.11,-30.51,0,*77
1487066845.86,20889,11.94,74496.5,3.25,-30.73,-31.39,0,*7D
1487066847.07,20890,11.94,74500.3,3.25,-31.17,-31.57,0,*7E
1487066848.33,20891,11.94,74500.5,3.21,-31.61,-32.19,0,*73
1487066849.58,20892,11.94,74496.3,3.21,-32.29,-32.75,0,*75
1487066850.81,20893,11.94,74500.5,3.21,-31.85,-32.35,0,*75
1487066852.03,20894,11.94,74496.0,3.19,-32.51,-32.91,0,*7D
1487066853.28,20895,11.94,74498.0,3.17,-31.51,-31.91,0,*72
1487066854.48,20896,11.94,74496.0,3.17,-32.35,-32.69,0,*74
1487066855.68,20897,11.94,74502.0,3.17,-32.01,-32.35,0,*7B
1487066856.93,20898,11.94,74500.0,3.15,-31.73,-32.13,0,*74
1487066858.15,20899,11.94,74502.5,3.15,-30.11,-30.45,0,*71
1487066859.38,20900,11.88,74498.8,3.17,-29.89,-30.27,0,*7F
1487066860.61,20901,11.94,74502.3,3.17,-30.67,-31.11,0,*72
1487066861.82,20902,11.94,74502.0,3.17,-32.01,-32.39,0,*7A
1487066863.05,20903,11.94,74498.0,3.17,-32.07,-32.39,0,*7D
1487066864.28,20904,11.94,74502.5,3.17,-31.33,-31.61,0,*70
1487066865.48,20905,11.94,74502.0,3.17,-31.17,-31.45,0,*71
1487066866.74,20906,11.94,74506.3,3.17,-31.61,-32.07,0,*76
1487066867.96,20907,11.88,74502.5,3.13,-31.91,-32.23,0,*7A
1487066869.18,20908,11.94,74506.5,3.15,-31.67,-32.23,0,*7A
1487066870.43,20909,11.94,74508.3,3.13,-31.57,-31.91,0,*74
1487066871.65,20910,11.94,74506.3,3.15,-32.13,-32.57,0,*70
1487066872.87,20911,11.94,74500.0,3.13,-32.63,-33.03,0,*70
1487066874.1,20912,11.94,74502.0,3.11,-32.51,-33.03,0,*70
1487066875.29,20913,11.94,74498.0,3.09,-33.37,-33.95,0,*76
1487066876.51,20914,11.94,74492.3,3.09,-33.21,-33.77,0,*7A
1487066877.76,20915,11.94,74490.3,3.09,-32.45,-32.85,0,*74
1487066878.98,20916,11.94,74492.5,3.07,-33.95,-34.41,0,*7B
1487066880.21,20917,11.94,74492.0,3.05,-33.49,-33.95,0,*77
1487066881.4,20918,11.88,74488.8,3.01,-33.55,-34.07,0,*7D
1487066882.62,20919,11.88,74490.0,2.95,-33.03,-33.61,0,*74
1487066883.84,20920,11.88,74486.3,2.95,-33.15,-33.61,0,*79
1487066885.08,20921,11.94,74488.0,2.93,-33.15,-33.61,0,*7E
1487066886.35,20922,11.94,74490.8,2.93,-31.85,-32.19,0,*78
1487066887.61,20923,11.94,74488.5,2.93,-31.45,-31.85,0,*73
1487066888.88,20924,11.94,74488.0,2.93,-30.55,-30.77,0,*78
1487066890.11,20925,11.94,74494.5,2.95,-30.77,-31.17,0,*78
1487066891.36,20926,11.94,74492.8,2.97,-31.29,-31.57,0,*77
1487066892.58,20927,11.88,74488.8,2.95,-30.73,-31.01,0,*79
1487066893.86,20928,11.94,74488.5,2.97,-30.17,-30.51,0,*72
1487066895.09,20929,11.88,74492.8,2.97,-29.45,-29.61,0,*77
1487066896.32,20930,11.88,74490.0,3.01,-30.67,-31.11,0,*77
1487066897.57,20931,11.94,74494.5,3.01,-30.51,-30.73,0,*76
1487066898.85,20932,11.94,74496.5,3.07,-30.39,-30.73,0,*7D
1487066900.08,20933,11.88,74492.5,3.05,-31.51,-32.01,0,*76
1487066901.33,20934,11.94,74496.3,3.05,-30.55,-30.77,0,*77
1487066902.56,20935,11.94,74494.3,3.05,-30.61,-31.17,0,*76
1487066903.79,20936,11.94,74496.8,3.07,-32.35,-32.69,0,*7E
1487066905.04,20937,11.94,74494.3,3.05,-31.61,-31.85,0,*7E